Grand Forks AFB, ND

10:16 PM CST on February 17, 2018 (GMT -0600)
Grand Forks Air Force Base

Weather History for KRDR - October, 2013

Change the Weather History Date:

Friday, October 11, 2013

  Actual Average Record
Temperature  
Mean Temperature 60 °F -  
Max Temperature 68 °F 55 °F 89 °F (2015)
Min Temperature 54 °F 34 °F 21 °F (2012)
Degree Days  
Heating Degree Days 4    
Growing Degree Days 10 (Base 50)    
Moisture  
Dew Point 57 °F    
Average Humidity 88    
Maximum Humidity 100    
Minimum Humidity 65    
Precipitation  
Precipitation 0.00 in - - ()
Sea Level Pressure  
Sea Level Pressure 29.45 in    
Wind  
Wind Speed 13 mph (SSE)    
Max Wind Speed 24 mph    
Max Gust Speed 36 mph    
Visibility 8 miles    
Events Rain , Thunderstorm    
Averages and records for this station are not official NWS values.
T = Trace of Precipitation, MM = Missing Value Source: NWS Daily Summary

Daily Weather History Graph

Daily Weather History Graph

Search for Another Location

Airport or City:

Trip Planner

Search our weather history database for the weather conditions in past years. The results will help you decide how hot, cold, wet, or windy it might be!

Date:

Astronomy

Oct. 11, 2013 Rise Set
Actual Time 7:43 AM CDT 6:48 PM CDT
Civil Twilight 7:12 AM CDT 7:19 PM CDT
Nautical Twilight 6:36 AM CDT 7:55 PM CDT
Astronomical Twilight 6:00 AM CDT 8:31 PM CDT
Moon 2:40 PM CDT (10/11) No Moon Set
Length of Visible Light 12h 07m
Length of Day
11h 04m
Waxing Crescent, 47% of the Moon is Illuminated
Oct 11
Waxing Crescent
Oct 11
First Quarter
Oct 18
Full
Oct 26
Last Quarter
Nov 3
New

Hourly Weather History & Observations

Time (CDT) Temp. Dew Point Humidity Pressure Visibility Wind Dir Wind Speed Gust Speed Precip Events Conditions
12:58 AM 57.7 °F 54.7 °F 90% 29.71 in 10.0 mi South 5.8 mph - N/A   Clear
1:47 AM 57.2 °F 55.4 °F 94% 29.67 in 10.0 mi East 3.5 mph - N/A   Light Drizzle
1:50 AM 57.2 °F 55.4 °F 94% 29.69 in 10.0 mi SSE 5.8 mph - N/A   Partly Cloudy
1:58 AM 57.4 °F 55.6 °F 94% 29.70 in 10.0 mi SSE 4.6 mph - 0.00 in   Partly Cloudy
2:58 AM 58.8 °F 54.9 °F 87% 29.69 in 10.0 mi SE 6.9 mph - N/A   Partly Cloudy
3:57 AM 60.8 °F 53.6 °F 77% 29.68 in 10.0 mi South 5.8 mph - N/A   Light Drizzle
3:58 AM 59.9 °F 53.4 °F 79% 29.70 in 10.0 mi South 5.8 mph - N/A   Light Drizzle
4:06 AM 59.0 °F 53.6 °F 82% 29.68 in 10.0 mi South 5.8 mph - N/A   Mostly Cloudy
4:58 AM 60.4 °F 54.9 °F 82% 29.68 in 10.0 mi SE 8.1 mph - 0.00 in   Overcast
5:58 AM 59.5 °F 53.4 °F 80% 29.64 in 10.0 mi SSE 11.5 mph - N/A   Partly Cloudy
6:58 AM 59.0 °F 52.9 °F 80% 29.65 in 10.0 mi South 8.1 mph - N/A   Clear
7:58 AM 58.5 °F 52.0 °F 79% 29.63 in 10.0 mi SSE 11.5 mph - N/A   Clear
8:58 AM 59.9 °F 52.5 °F 77% 29.61 in 10.0 mi ESE 12.7 mph - N/A   Clear
9:58 AM 61.2 °F 52.3 °F 73% 29.60 in 10.0 mi SE 13.8 mph 21.9 mph N/A   Clear
10:58 AM 63.3 °F 53.1 °F 69% 29.58 in 10.0 mi SSE 17.3 mph 23.0 mph N/A   Clear
11:58 AM 66.2 °F 54.1 °F 65% 29.54 in 10.0 mi SSE 20.7 mph 25.3 mph N/A   Clear
12:58 PM 66.6 °F 54.9 °F 66% 29.52 in 10.0 mi SE 19.6 mph 27.6 mph N/A   Mostly Cloudy
1:07 PM 66.2 °F 55.4 °F 68% 29.51 in 10.0 mi SSE 19.6 mph 25.3 mph N/A   Light Drizzle
1:26 PM 62.6 °F 57.2 °F 82% 29.51 in 10.0 mi SSE 16.1 mph - N/A   Overcast
1:29 PM 62.6 °F 57.2 °F 82% 29.51 in 10.0 mi SSE 13.8 mph - N/A Rain Light Rain
1:39 PM 62.6 °F 57.2 °F 82% 29.52 in 6.0 mi SSE 21.9 mph 28.8 mph N/A Rain Light Rain
1:41 PM 62.6 °F 57.2 °F 82% 29.52 in 5.0 mi SE 21.9 mph 28.8 mph N/A Rain Light Rain
1:44 PM 60.8 °F 59.0 °F 94% 29.52 in 3.0 mi SE 23.0 mph 29.9 mph N/A Rain , Thunderstorm Light Thunderstorms and Rain
1:49 PM 60.8 °F 59.0 °F 94% 29.50 in 2.0 mi SE 23.0 mph 29.9 mph N/A Rain , Thunderstorm Light Thunderstorms and Rain
1:54 PM 60.8 °F 59.0 °F 94% 29.47 in 1.8 mi SE 20.7 mph 29.9 mph N/A Rain , Thunderstorm Light Thunderstorms and Rain
1:55 PM 60.8 °F 59.0 °F 94% 29.46 in 1.8 mi ESE 20.7 mph 29.9 mph N/A Thunderstorm Overcast
1:58 PM 60.1 °F 59.2 °F 97% 29.46 in 1.8 mi ESE 17.3 mph 29.9 mph 0.00 in Thunderstorm Overcast
1:59 PM 59.0 °F 59.0 °F 100% 29.47 in 2.0 mi East 16.1 mph 29.9 mph N/A Rain , Thunderstorm Light Rain
2:04 PM 60.8 °F 59.0 °F 94% 29.48 in 4.0 mi SE 19.6 mph 27.6 mph N/A Rain Light Rain
2:12 PM 60.8 °F 60.8 °F 100% 29.46 in 10.0 mi SE 15.0 mph 26.5 mph N/A   Mostly Cloudy
2:58 PM 64.8 °F 60.1 °F 85% 29.45 in 10.0 mi SE 18.4 mph 29.9 mph 0.00 in   Partly Cloudy
3:43 PM 64.4 °F 59.0 °F 83% 29.45 in 10.0 mi SE 17.3 mph 31.1 mph N/A   Overcast
3:58 PM 63.9 °F 58.6 °F 83% 29.45 in 10.0 mi ESE 16.1 mph 25.3 mph N/A   Overcast
4:28 PM 64.4 °F 59.0 °F 83% 29.41 in 10.0 mi ESE 24.2 mph 32.2 mph N/A   Mostly Cloudy
4:58 PM 64.6 °F 57.7 °F 78% 29.42 in 10.0 mi ESE 20.7 mph 34.5 mph N/A   Scattered Clouds
5:03 PM 64.4 °F 57.2 °F 77% 29.40 in 10.0 mi SE 23.0 mph 31.1 mph N/A   Mostly Cloudy
5:08 PM 64.4 °F 57.2 °F 77% 29.39 in 10.0 mi SE 21.9 mph 26.5 mph N/A   Mostly Cloudy
5:23 PM 64.4 °F 57.2 °F 77% 29.39 in 10.0 mi SE 23.0 mph 35.7 mph N/A   Overcast
5:38 PM 62.6 °F 59.0 °F 88% 29.39 in 10.0 mi SE 17.3 mph 31.1 mph N/A   Overcast
5:40 PM 62.6 °F 59.0 °F 88% 29.39 in 10.0 mi ESE 19.6 mph 27.6 mph N/A Rain Light Rain
5:56 PM 60.8 °F 59.0 °F 94% 29.39 in 5.0 mi SE 19.6 mph 26.5 mph N/A   Overcast
5:57 PM 60.8 °F 59.0 °F 94% 29.39 in 4.0 mi SE 20.7 mph 28.8 mph N/A Rain Light Rain
5:58 PM 60.8 °F 59.0 °F 94% 29.41 in 4.0 mi SE 20.7 mph 28.8 mph 0.00 in Rain Light Rain
6:08 PM 60.8 °F 59.0 °F 94% 29.38 in 3.0 mi SE 17.3 mph 28.8 mph N/A   Overcast
6:19 PM 60.8 °F 59.0 °F 94% 29.37 in 4.0 mi SE 16.1 mph - N/A Rain Light Rain
6:28 PM 60.8 °F 59.0 °F 94% 29.37 in 3.0 mi ESE 17.3 mph - N/A   Overcast
6:38 PM 60.8 °F 59.0 °F 94% 29.36 in 4.0 mi ESE 17.3 mph 23.0 mph N/A   Overcast
6:45 PM 60.8 °F 59.0 °F 94% 29.35 in 10.0 mi ESE 16.1 mph 24.2 mph N/A Rain Light Rain
6:50 PM 60.8 °F 59.0 °F 94% 29.35 in 9.0 mi ESE 19.6 mph 27.6 mph N/A Rain Light Rain
6:58 PM 60.4 °F 59.7 °F 97% 29.36 in 5.0 mi ESE 18.4 mph 31.1 mph 0.00 in Rain Light Rain
7:03 PM 60.8 °F 59.0 °F 94% 29.34 in 5.0 mi ESE 21.9 mph 31.1 mph N/A   Overcast
7:13 PM 59.0 °F 59.0 °F 100% 29.33 in 10.0 mi ESE 19.6 mph 31.1 mph N/A   Mostly Cloudy
7:37 PM 60.8 °F 59.0 °F 94% 29.31 in 10.0 mi SE 16.1 mph - N/A Rain Light Rain
7:58 PM 59.9 °F 58.5 °F 95% 29.32 in 10.0 mi SSE 18.4 mph 25.3 mph 0.00 in   Light Drizzle
8:04 PM 59.0 °F 57.2 °F 94% 29.30 in 10.0 mi SSE 17.3 mph 26.5 mph N/A   Overcast
8:58 PM 59.5 °F 58.3 °F 96% 29.29 in 10.0 mi SSE 18.4 mph 26.5 mph 0.00 in   Mostly Cloudy
9:42 PM 57.2 °F 53.6 °F 88% 29.27 in 10.0 mi South 17.3 mph 31.1 mph N/A   Overcast
9:47 PM 57.2 °F 53.6 °F 88% 29.27 in 9.0 mi South 18.4 mph - N/A   Overcast
9:57 PM 55.4 °F 53.6 °F 94% 29.26 in 10.0 mi South 18.4 mph 26.5 mph N/A   Overcast
9:58 PM 56.1 °F 54.0 °F 92% 29.28 in 10.0 mi South 18.4 mph 26.5 mph N/A   Overcast
10:23 PM 55.4 °F 55.4 °F 100% 29.27 in 10.0 mi SSW 16.1 mph - N/A   Overcast
10:43 PM 55.4 °F 53.6 °F 94% 29.28 in 10.0 mi SSW 16.1 mph 26.5 mph N/A   Overcast
10:48 PM 55.4 °F 53.6 °F 94% 29.28 in 10.0 mi SSW 13.8 mph 26.5 mph N/A   Mostly Cloudy
10:53 PM 55.4 °F 53.6 °F 94% 29.28 in 10.0 mi SSW 15.0 mph - N/A   Mostly Cloudy
10:58 PM 55.9 °F 54.0 °F 93% 29.29 in 10.0 mi SSW 12.7 mph - N/A   Overcast
11:18 PM 55.4 °F 53.6 °F 94% 29.30 in 10.0 mi SSW 17.3 mph 25.3 mph N/A   Overcast
11:58 PM 54.1 °F 51.6 °F 91% 29.34 in 10.0 mi South 17.3 mph - N/A   Overcast